Regional Weather Roundup
Issued by NWS

Home | Current Version | Previous Version | Graphics & Text | Print | Product List | Glossary Off
Versions: 1 2 3 4 5 6 7 8 9 10 11 12 13 14 15 16 17 18 19 20 21 22 23 24 25 26 27 28 29 30 31 32 33 34 35 36 37 38 39 40 41 42 43 44 45 46 47 48 49 50

000
ASUS43 KTOP 181359
RWRKS

WEATHER ROUNDUP FOR KANSAS
NATIONAL WEATHER SERVICE GOODLAND KS
800 AM CST SUN FEB 18 2018

NOTE:  "FAIR" INDICATES FEW OR NO CLOUDS BELOW 12,000 FEET WITH NO
SIGNIFICANT WEATHER AND/OR OBSTRUCTIONS TO VISIBILITY.

KSZ001>006-013>018-027>032-041>047-181500-
NORTHWEST KANSAS

CITY           SKY/WX    TMP DP  RH WIND       PRES   REMARKS
GOODLAND       CLOUDY    37  26  64 S15       29.60F WCI  28
HAYS           CLOUDY    43  21  41 S25G33    29.77F
HILL CITY      CLOUDY    45  24  43 SW13G29   29.72F
RUSSELL        CLOUDY    45  24  43 S23G35    29.80F
$$

KSZ061>065-074>080-084>089-181500-
SOUTHWEST KANSAS

CITY           SKY/WX    TMP DP  RH WIND       PRES   REMARKS
DODGE CITY     CLOUDY    42  23  46 S20G32    29.82F
GARDEN CITY    CLOUDY    41  23  48 S21G31    29.77F
GREAT BEND     CLOUDY    42  25  50 S26G35    29.85F
LIBERAL        CLOUDY    43  25  49 S29G37    29.81F
$$

KSZ066>073-081>083-090>101-181500-
SOUTHEAST KANSAS

CITY           SKY/WX    TMP DP  RH WIND       PRES   REMARKS
CHANUTE        CLOUDY    39  33  79 S13       30.09S WCI  31
COFFEYVILLE    CLOUDY    36  32  85 S10       30.11S WCI  28
HUTCHINSON     CLOUDY    41  28  60 S23G29    29.94F
MEDICINE LODGE   N/A     37  31  78 S13G21    29.95F WCI  29
NEWTON         PTCLDY    40  28  62 S23       29.96F WCI  30
PARSONS        CLOUDY    38  32  79 S8        30.10F
WICHITA INTL   CLOUDY    42  30  62 S25G31    29.98F
WICHITA JABRA  CLOUDY    40  31  70 S17G26    29.99F WCI  31
WICHITA MCCONL PTCLDY    40  30  67 S20G25    29.99F WCI  30
WINFIELD       CLOUDY    40  35  83 S23       30.04F WCI  30
$$

KSZ007>012-019>026-033>040-048>060-102>105-181500-
NORTHEAST KANSAS

CITY           SKY/WX    TMP DP  RH WIND       PRES   REMARKS
CONCORDIA      CLOUDY    42  25  50 S26G43    29.83F
EMPORIA        CLOUDY    36  31  82 S17       30.01F WCI  26
LAWRENCE       CLOUDY    37  33  85 SE10      30.05S WCI  30
MANHATTAN      PTCLDY    45  30  55 S20G30    29.93F
OLATHE IND     CLOUDY    39  32  76 S15       30.07R WCI  31
OLATHE EXE     CLOUDY    39  32  76 S14       30.07S WCI  31
SALINA         CLOUDY    44  27  51 S22G31    29.90F
TOPEKA BILLARD CLOUDY    42  34  73 S14G20    30.02R
TOPEKA FORBES  CLOUDY    41  34  76 S17G28    30.00R
$$




USA.gov is the U.S. government's official web portal to all federal, state and local government web resources and services.